Theta_e
320 320 319 319 319 319 318 319 317 313 313 312 311 311 313 313 312 313 314 317 318 323 326 326 334 333 336 338 346 342 354 356 354 355 354 351 350 349 348 346 347 346 346 345 346
319 319 319 318 317 317 318 319 318 314 313 313 311 311 311 311 313 315 316 317 319 323 326 326 327 328 328 337 346 348 354 352 348 350 352 352 350 349 351 349 349 348 346 346 346
314 315 315 316 315 315 316 318 318 314 312 313 314 314 314 314 320 318 316 317 318 320 320 320 321 323 327 341 346 348 355 354 351 348 350 351 352 350 350 351 348 346 348 347 346
310 311 312 312 312 313 314 316 317 316 314 313 315 315 318 317 329 322 324 315 317 321 318 320 323 328 338 351 350 354 354 354 352 348 348 352 349 351 348 348 345 344 346 347 347
310 310 311 311 312 313 314 315 317 318 316 313 315 316 321 318 316 316 322 315 317 321 319 323 326 340 349 350 351 354 354 352 350 350 350 349 351 352 349 347 344 345 346 347 346
310 311 311 312 313 313 314 315 316 318 315 318 313 317 323 316 315 322 321 316 320 319 320 322 326 338 347 351 353 351 353 351 350 351 350 350 350 349 349 346 345 346 347 346 346
310 311 311 312 313 314 315 315 316 318 315 319 313 320 323 320 321 323 318 317 319 319 320 320 336 329 345 352 347 348 352 352 351 350 350 348 351 349 347 347 347 347 346 346 346
310 311 311 312 313 317 318 317 317 316 316 317 314 319 322 320 324 322 319 317 317 318 319 320 331 341 345 346 345 345 352 357 353 351 348 348 356 351 347 348 349 348 347 346 346
310 311 312 313 314 320 319 317 316 317 315 315 320 324 324 324 326 323 320 318 316 317 320 322 335 344 344 347 347 346 342 354 355 351 350 351 353 349 347 347 350 349 348 347 346
310 311 312 313 316 319 317 319 315 315 318 322 324 325 324 324 327 324 321 318 319 318 321 322 330 340 345 342 335 336 335 347 353 352 351 353 354 347 348 347 348 349 349 348 347
309 311 312 314 317 317 320 320 320 321 325 327 325 322 322 324 326 324 320 321 320 322 324 323 327 330 332 340 335 337 339 340 349 349 354 354 353 350 347 348 348 349 349 348 347
309 310 313 315 318 317 315 314 321 321 325 322 324 323 322 323 325 323 321 326 327 325 321 324 329 328 328 338 339 337 334 338 347 351 353 354 355 352 349 347 347 347 348 348 346
309 311 313 315 318 319 318 318 319 320 323 320 319 323 323 323 324 326 324 322 326 324 321 327 326 325 327 328 330 331 332 335 343 354 352 354 356 356 351 349 346 345 345 345 346
310 312 314 316 319 318 320 318 319 320 321 321 321 322 324 324 325 325 324 325 321 325 320 322 323 321 322 323 328 329 330 333 347 350 348 351 352 352 348 352 350 347 344 344 345
311 312 313 314 316 319 319 320 319 314 321 318 323 322 324 326 325 323 319 324 322 321 320 324 321 323 326 324 325 326 338 337 347 349 349 351 356 347 347 349 351 349 345 343 343
312 312 312 315 316 320 320 320 315 320 319 324 323 325 325 325 321 320 322 322 321 320 318 321 319 320 322 322 326 330 345 348 350 354 352 345 349 343 347 350 347 347 347 344 344
313 313 315 315 320 319 320 315 322 320 319 323 321 325 325 326 324 323 324 323 323 323 323 321 321 321 320 322 325 333 339 337 343 353 337 344 350 343 343 342 343 343 344 345 343
314 319 320 317 318 319 318 319 322 318 321 321 323 321 326 325 326 322 324 325 321 320 321 322 322 321 321 323 323 329 330 329 330 342 334 346 346 338 339 339 343 342 342 344 345
316 321 321 320 322 319 319 322 322 317 321 324 323 321 324 324 325 325 325 326 324 322 324 323 323 320 320 320 324 327 330 328 332 334 337 334 339 337 342 344 344 344 345 345 345
316 321 321 319 319 317 324 321 321 318 324 324 325 324 326 325 325 324 325 324 325 321 324 324 325 322 321 320 322 325 325 327 330 331 331 337 344 338 341 348 347 346 347 347 346
317 327 322 322 317 323 329 326 323 322 322 327 325 327 326 327 326 323 324 323 322 322 322 323 323 324 321 323 325 325 326 329 332 335 335 335 334 339 341 346 348 347 346 348 348
319 329 323 320 324 319 326 323 319 327 326 326 324 326 328 326 327 326 324 324 320 319 321 322 324 326 325 322 321 325 327 328 328 334 338 337 334 338 340 341 345 346 346 347 347
325 325 323 319 328 329 326 327 326 328 328 329 328 328 326 327 330 327 326 324 321 320 322 321 324 326 326 322 323 324 324 325 328 331 341 333 332 339 342 344 341 342 345 348 349
324 331 326 323 321 326 327 328 328 325 327 327 328 327 330 325 324 325 325 322 324 322 327 323 322 326 327 327 327 331 324 325 327 330 331 333 332 335 343 347 345 346 347 348 350
319 323 319 329 325 325 324 325 328 330 327 327 329 329 331 330 331 326 328 329 327 328 330 321 327 325 324 325 324 327 330 326 329 330 331 331 337 334 341 346 345 348 348 349 350
319 319 317 316 318 322 321 327 327 327 327 329 330 328 329 331 330 332 330 330 329 328 328 322 328 323 326 327 322 324 328 327 328 332 334 333 338 338 338 345 346 348 348 349 349
313 314 318 315 320 321 322 321 324 320 322 325 326 327 330 328 326 327 327 328 328 329 329 329 329 331 331 332 328 329 328 330 331 333 335 336 336 338 343 346 348 349 349 348 348
Wind_Speed
13 12 12 12 12 12 12 13 11 6 5 3 3 4 4 4 6 4 6 5 9 12 11 13 6 4 3 2 1 1 0 2 2 4 2 6 4 3 3 8 4 3 2 7 17
15 14 14 13 13 13 13 13 14 7 3 1 1 3 3 4 4 8 5 10 15 16 11 10 6 7 2 2 2 2 0 1 1 2 3 8 3 7 6 6 3 7 12 17 17
15 15 15 15 14 14 14 14 14 8 2 1 1 1 2 3 3 2 8 14 18 14 7 5 6 4 3 2 3 2 2 3 1 3 8 5 4 3 6 3 4 8 13 14 15
16 16 16 15 15 14 13 13 13 8 1 2 1 0 1 0 4 3 3 19 17 13 8 5 4 3 2 2 1 1 4 2 2 4 6 3 3 4 3 2 3 12 14 13 12
17 17 16 16 16 15 13 13 12 8 2 4 3 1 1 2 5 2 4 20 18 15 6 5 4 3 2 2 2 1 1 4 4 5 4 4 6 2 4 5 10 15 13 11 11
19 18 18 18 17 15 15 13 12 8 3 5 5 2 0 4 2 1 11 23 16 11 6 5 2 3 5 3 1 4 7 5 3 5 4 4 3 3 4 7 10 13 12 11 11
19 20 20 20 19 17 15 13 12 7 4 6 7 3 1 7 2 3 12 15 15 7 4 4 2 2 4 5 4 2 4 4 3 1 2 5 1 3 4 9 10 12 10 10 9
21 21 21 22 21 20 16 13 9 4 4 6 8 3 5 3 3 8 10 8 9 6 1 4 7 7 2 7 3 2 2 2 4 4 3 5 6 11 6 5 9 11 11 11 11
22 22 23 23 23 23 15 4 2 2 5 10 3 1 5 3 4 9 13 6 7 5 3 4 2 3 4 3 2 0 4 2 2 8 3 6 3 3 9 6 9 11 12 11 11
23 23 24 23 25 21 1 8 11 10 9 5 2 2 5 3 5 9 11 10 4 6 3 2 3 3 3 4 3 2 5 2 4 7 7 8 11 1 12 11 11 13 13 13 13
24 24 24 23 24 6 14 8 2 2 3 6 3 2 1 2 5 5 7 8 4 3 6 3 6 13 10 9 2 3 5 7 3 5 9 11 11 11 10 15 15 13 14 16 16
24 26 24 22 16 4 2 2 4 2 6 10 11 8 6 1 2 3 11 9 6 8 4 5 15 8 4 6 7 7 8 7 1 5 10 5 15 16 15 19 19 18 17 17 15
24 26 24 21 10 3 6 2 3 5 3 4 5 6 5 11 5 7 13 7 8 8 8 11 2 9 7 5 7 10 9 7 4 5 6 7 9 8 11 17 15 20 19 18 17
28 26 23 19 1 6 2 6 11 6 2 3 3 3 6 7 5 7 14 9 3 13 5 7 7 6 4 7 8 13 4 9 6 5 3 2 6 6 5 12 17 17 19 17 17
32 25 21 15 9 3 5 6 1 3 3 3 2 3 2 10 6 5 7 6 10 7 7 7 6 13 17 17 8 5 4 1 4 3 5 4 4 3 2 7 16 18 18 19 18
35 27 21 6 5 5 5 6 4 2 4 2 4 4 9 6 3 4 6 4 2 6 4 13 1 4 16 6 9 6 8 8 5 1 3 1 4 6 3 3 3 12 19 20 20
34 24 12 6 1 2 8 3 3 4 2 3 2 3 9 10 5 6 12 13 10 8 11 9 13 9 4 7 4 7 6 1 1 2 4 1 5 10 5 9 11 9 13 20 19
31 9 6 1 1 4 1 3 5 0 2 2 3 2 9 8 8 6 11 12 10 3 2 10 10 10 10 15 8 12 9 4 5 4 5 2 5 4 3 7 6 4 7 13 18
16 5 5 10 3 2 2 5 3 3 2 6 4 1 4 5 4 8 10 16 12 16 7 6 6 2 6 6 10 6 7 1 2 1 4 3 6 11 4 4 2 3 6 12 16
5 3 8 16 9 1 1 1 0 2 4 1 2 2 0 1 5 8 10 6 11 18 21 7 6 5 2 5 3 6 11 4 2 5 7 3 5 6 4 6 4 4 6 8 11
3 2 5 14 4 2 1 0 2 3 3 2 1 2 2 2 1 3 4 3 7 9 17 10 6 4 1 10 14 5 5 2 2 2 3 4 5 3 5 7 9 7 7 7 10
3 3 7 9 2 1 2 2 4 3 2 2 2 4 4 2 4 4 5 5 3 9 11 11 9 13 18 1 1 4 7 14 8 7 1 3 6 2 4 6 5 5 7 6 8
3 2 5 4 2 2 2 2 2 3 4 3 2 3 2 3 4 7 7 8 6 10 10 9 8 7 6 6 3 5 7 8 5 3 6 6 6 3 3 6 8 6 7 7 8
1 1 3 4 2 2 4 2 4 3 2 4 2 1 3 1 1 5 4 4 12 5 5 12 6 10 9 8 4 6 8 11 12 6 7 9 12 8 6 6 7 7 9 10 10
4 3 2 3 2 3 2 1 3 3 3 4 2 6 5 3 4 2 4 9 8 5 4 8 9 8 15 11 9 11 10 15 13 11 9 11 10 15 8 11 11 10 10 11 11
3 3 2 2 4 4 3 3 4 4 4 3 3 11 7 4 4 7 8 4 4 6 5 2 7 3 6 3 10 13 11 15 13 7 4 5 8 7 3 5 9 10 11 11 10
4 2 2 2 2 2 1 2 1 7 5 6 7 10 9 3 11 16 14 14 14 12 7 4 3 5 7 1 5 5 15 16 13 12 11 8 11 7 7 11 13 13 12 12 11
Wind_Direction
13 12 9 8 5 0 356 352 350 334 323 319 285 259 265 278 287 256 235 214 181 164 155 152 165 161 157 145 121 118 301 347 331 183 148 152 173 199 96 125 102 47 82 126 142
9 7 7 5 3 358 355 349 354 342 324 318 272 255 273 293 277 240 228 175 168 161 151 164 167 162 150 139 144 201 254 309 231 191 199 170 151 157 155 136 104 89 97 130 143
6 5 1 359 357 353 351 347 354 348 335 206 214 254 306 308 260 209 187 172 165 174 178 167 133 178 156 167 164 161 319 327 35 153 146 148 154 126 146 159 194 156 146 148 154
6 2 358 354 351 349 346 343 348 346 332 191 203 290 332 59 180 126 178 180 186 170 157 142 159 189 144 133 171 280 37 25 77 148 163 137 136 116 127 89 160 146 152 154 168
6 1 357 352 348 344 341 336 338 334 280 200 190 224 90 220 257 329 213 167 171 172 185 174 182 165 131 130 138 227 68 49 109 123 115 97 71 50 178 102 121 139 152 170 176
1 1 358 355 352 344 337 331 327 321 256 205 196 173 159 227 296 360 153 163 172 170 179 189 218 133 103 68 71 68 86 101 106 108 113 128 31 126 91 130 137 151 170 181 186
357 357 356 353 348 340 334 326 319 302 236 206 190 155 212 247 188 127 151 175 175 176 169 201 132 86 143 118 112 113 103 115 120 141 123 144 182 186 118 157 161 171 181 197 196
354 354 351 353 347 339 331 321 312 263 219 197 167 149 252 234 274 187 165 154 193 191 82 146 113 99 38 122 116 185 182 265 170 193 171 254 241 204 166 157 195 184 188 208 204
351 348 348 348 343 334 327 343 79 151 148 144 125 216 258 260 220 192 175 150 143 170 123 105 71 85 142 168 172 304 325 263 196 204 188 229 295 164 175 177 206 207 207 213 217
350 346 345 346 342 334 70 117 101 105 117 115 102 253 239 197 164 170 178 149 126 127 134 167 85 159 148 200 277 308 322 284 243 194 214 219 253 239 189 198 216 218 209 216 226
348 344 344 348 345 26 122 114 183 156 214 216 193 248 279 114 151 179 175 156 120 150 190 181 214 223 224 217 231 280 292 302 264 181 196 234 263 243 206 208 218 215 211 213 222
346 342 342 346 345 98 114 242 97 29 292 234 244 269 261 60 139 156 156 168 178 203 158 178 227 224 188 222 238 253 287 290 189 159 203 244 260 247 229 224 217 212 211 216 219
348 342 339 342 335 250 301 192 140 347 257 284 200 224 224 187 222 196 181 159 172 186 205 219 269 174 193 214 242 251 267 277 287 133 214 279 272 233 232 230 232 224 220 218 214
346 340 336 338 50 323 246 171 303 193 287 225 224 240 159 157 218 188 178 165 158 209 184 242 229 220 184 246 236 276 229 252 206 201 288 247 299 270 227 230 224 229 214 212 210
345 338 330 328 296 233 148 313 60 175 297 105 144 135 149 186 125 177 168 167 187 175 190 214 214 222 241 249 217 281 50 249 189 200 289 192 255 271 225 235 230 225 217 212 205
342 334 318 304 250 233 288 320 162 225 243 59 125 162 164 197 136 113 165 146 120 168 229 246 242 226 225 219 195 137 101 95 104 241 255 99 242 282 220 224 236 224 216 208 201
339 329 293 215 213 182 338 176 186 231 351 39 75 159 190 190 181 164 176 186 193 197 221 230 234 244 205 242 141 194 187 241 198 199 276 101 226 263 255 265 262 277 223 208 201
342 4 34 314 329 301 197 167 206 323 288 340 339 266 199 170 211 160 170 195 215 179 168 220 230 204 193 215 216 195 225 231 255 226 282 146 237 271 175 300 288 271 226 199 200
351 35 35 335 261 165 191 201 220 206 329 338 320 106 184 201 229 188 194 214 212 200 223 186 246 225 205 175 184 162 205 226 137 103 270 262 263 268 257 216 227 171 179 192 196
10 75 31 47 99 344 135 196 306 261 325 311 313 12 125 184 217 200 189 209 216 202 212 203 263 246 172 163 79 217 147 171 198 230 257 223 278 280 243 196 203 185 200 190 194
41 83 356 346 7 48 147 219 297 269 286 282 298 298 270 324 281 228 223 217 217 202 204 200 230 209 209 208 198 160 194 116 127 270 254 283 300 204 227 193 188 188 204 192 189
1 76 342 349 77 33 85 334 337 335 360 335 289 281 264 282 281 253 254 249 161 150 175 203 213 237 246 229 241 215 226 212 221 203 237 299 277 155 219 185 201 165 188 187 182
46 325 346 347 73 64 353 324 289 339 350 355 337 351 5 263 251 235 259 277 246 185 178 175 222 229 225 188 150 209 198 207 148 137 194 252 273 162 224 217 226 175 156 167 163
24 35 16 50 31 34 7 6 317 355 285 341 295 106 339 259 240 290 278 299 341 256 202 174 205 217 231 226 164 183 188 203 205 207 213 237 268 249 193 204 197 166 146 155 160
14 61 29 5 47 359 270 288 278 304 359 351 181 31 342 286 307 280 323 320 301 317 175 204 238 214 243 252 217 246 197 183 209 205 211 240 218 252 203 185 188 158 142 147 153
30 358 14 29 319 320 9 51 353 346 318 326 353 335 317 267 320 310 339 333 292 339 326 280 244 193 266 321 234 242 238 200 210 197 221 198 230 238 146 142 161 165 154 151 163
25 42 317 26 343 278 92 21 43 347 279 277 353 328 294 344 315 288 272 267 269 287 290 289 232 183 248 336 156 241 229 204 195 197 193 186 217 163 182 193 176 168 174 167 167